KC9ZAR-13 Weather Reports


time (UTC)temp
F
wind
direction
speed
knots
gust
knots
rain 1hr
in
rain 24hr
in
rain mn
in
humidity
%
barometer
mb
20260504042004 61 200 6.1 12.2 0.00 0.00 0.00 57 1009.1
20260504041005 61 193 6.1 12.2 0.00 0.00 0.00 57 1009.3
20260504040005 61 198 6.1 13.9 0.00 0.00 0.00 56 1009.2
20260504035505 61 187 6.1 11.3 0.00 0.00 0.00 56 1009.2
20260504035004 61 185 6.1 11.3 0.00 0.00 0.00 56 1009.3
20260504034504 61 185 6.1 12.2 0.00 0.00 0.00 56 1009.4
20260504034004 61 199 4.3 10.4 0.00 0.00 0.00 56 1009.6
20260504033505 61 182 6.1 10.4 0.00 0.00 0.00 56 1009.6
20260504033005 61 195 6.1 10.4 0.00 0.00 0.00 56 1009.6
20260504032004 62 179 5.2 13.0 0.00 0.00 0.00 56 1009.5
20260504031504 62 193 6.1 13.0 0.00 0.00 0.00 55 1009.6
20260504031004 62 181 6.1 13.0 0.00 0.00 0.00 55 1009.7
20260504030504 62 186 6.1 13.0 0.00 0.00 0.00 53 1009.8
20260504030004 62 192 5.2 13.0 0.00 0.00 0.00 53 1009.7
20260504025005 62 194 6.1 13.0 0.00 0.00 0.00 53 1009.8
20260504024505 62 201 6.1 12.2 0.00 0.00 0.00 53 1009.7
20260504024005 62 193 7.0 13.0 0.00 0.00 0.00 53 1009.4
20260504023004 62 191 7.0 12.2 0.00 0.00 0.00 53 1009.3
20260504022504 62 184 6.1 13.0 0.00 0.00 0.00 53 1009.5
20260504022004 62 183 5.2 11.3 0.00 0.00 0.00 53 1009.4
20260504021504 62 194 6.1 13.0 0.00 0.00 0.00 52 1009.4
20260504021005 62 191 6.1 13.0 0.00 0.00 0.00 52 1009.5
20260504020506 62 190 5.2 10.4 0.00 0.00 0.00 52 1009.5
20260504020006 62 188 6.1 10.4 0.00 0.00 0.00 52 1009.5
20260504015506 62 181 7.0 10.4 0.00 0.00 0.00 52 1009.6
20260504015006 63 196 5.2 10.4 0.00 0.00 0.00 52 1009.6
20260504014506 63 180 5.2 8.7 0.00 0.00 0.00 52 1009.6
20260504014006 63 187 5.2 10.4 0.00 0.00 0.00 52 1009.7
20260504012505 63 200 5.2 10.4 0.00 0.00 0.00 50 1009.7
20260504012006 64 185 4.3 7.8 0.00 0.00 0.00 50 1009.6
20260504011006 64 190 4.3 10.4 0.00 0.00 0.00 50 1009.7
20260504010505 64 190 6.1 10.4 0.00 0.00 0.00 50 1009.8
20260504010005 64 188 5.2 10.4 0.00 0.00 0.00 50 1009.8
20260504005505 64 187 6.1 8.7 0.00 0.00 0.00 50 1009.9
20260504005005 64 190 5.2 8.7 0.00 0.00 0.00 49 1009.9
20260504004506 64 203 4.3 8.7 0.00 0.00 0.00 50 1010.0
20260504004006 64 197 5.2 8.7 0.00 0.00 0.00 49 1010.1
20260504003506 64 200 5.2 10.4 0.00 0.00 0.00 49 1010.1
20260504003005 65 206 4.3 7.8 0.00 0.00 0.00 49 1010.2
20260504002506 65 195 5.2 10.4 0.00 0.00 0.00 49 1010.2
20260504002006 65 205 4.3 7.8 0.00 0.00 0.00 48 1010.3
20260504001506 65 196 4.3 8.7 0.00 0.00 0.00 48 1010.3
20260504000506 65 204 5.2 10.4 0.00 0.00 0.00 47 1010.3
20260504000005 65 189 7.0 11.3 0.00 0.00 0.00 46 1010.3
20260503235505 66 204 7.0 11.3 0.00 0.00 0.00 46 1010.4
20260503235006 66 201 5.2 11.3 0.00 0.00 0.00 46 1010.4
20260503234505 66 219 6.1 12.2 0.00 0.00 0.00 45 1010.4
20260503233506 66 197 8.7 13.0 0.00 0.00 0.00 45 1010.0
20260503233006 67 197 9.6 15.6 0.00 0.00 0.00 45 1009.9
20260503232506 67 193 7.0 13.0 0.00 0.00 0.00 45 1010.0
20260503231506 67 206 5.2 11.3 0.00 0.00 0.00 46 1010.1
20260503231006 67 217 6.1 11.3 0.00 0.00 0.00 46 1009.9
20260503225505 67 200 11.3 17.4 0.00 0.00 0.00 44 1010.2
20260503225005 67 208 8.7 17.4 0.00 0.00 0.00 45 1010.0
20260503224005 67 208 7.8 18.2 0.00 0.00 0.00 45 1010.1
20260503223506 67 189 8.7 18.2 0.00 0.00 0.00 45 1010.1
20260503223006 67 194 8.7 17.4 0.00 0.00 0.00 46 1010.1
20260503222505 67 209 9.6 17.4 0.00 0.00 0.00 45 1010.1
20260503222005 67 192 8.7 17.4 0.00 0.00 0.00 44 1010.2
20260503221505 67 199 9.6 19.1 0.00 0.00 0.00 46 1010.2
20260503221006 67 212 11.3 17.4 0.00 0.00 0.00 45 1010.5
20260503220506 67 199 12.2 19.1 0.00 0.00 0.00 45 1010.5
20260503220005 67 195 10.4 22.6 0.00 0.00 0.00 45 1010.7
20260503215506 67 203 9.6 17.4 0.00 0.00 0.00 45 1010.8
20260503214505 67 198 10.4 17.4 0.00 0.00 0.00 46 1010.9
20260503214005 67 203 7.8 17.4 0.00 0.00 0.00 47 1011.0
20260503213506 67 190 10.4 17.4 0.00 0.00 0.00 46 1011.1
20260503213006 67 178 7.8 21.7 0.00 0.00 0.00 46 1011.1
20260503212505 66 180 8.7 19.1 0.00 0.00 0.00 46 1011.2
20260503212005 66 198 7.0 20.0 0.00 0.00 0.00 46 1011.2
20260503211505 66 197 10.4 19.1 0.00 0.00 0.00 45 1011.6
20260503211006 66 192 12.2 19.1 0.00 0.00 0.00 45 1011.7
20260503210505 67 207 8.7 17.4 0.00 0.00 0.00 47 1011.9
20260503210006 67 208 11.3 17.4 0.00 0.00 0.00 46 1012.0
20260503205505 66 222 8.7 18.2 0.00 0.00 0.00 48 1012.1
20260503205006 66 219 10.4 15.6 0.00 0.00 0.00 47 1012.5
20260503204505 66 193 11.3 20.0 0.00 0.00 0.00 46 1012.6
20260503204005 66 206 8.7 17.4 0.00 0.00 0.00 47 1012.8
20260503203506 67 207 10.4 18.2 0.00 0.00 0.00 45 1012.8
20260503203006 67 215 7.8 14.8 0.00 0.00 0.00 47 1012.9
20260503202505 67 220 7.8 17.4 0.00 0.00 0.00 46 1013.1
20260503202005 67 197 7.8 17.4 0.00 0.00 0.00 46 1013.3
20260503201505 66 188 7.8 15.6 0.00 0.00 0.00 45 1013.3
20260503201005 67 220 6.1 12.2 0.00 0.00 0.00 46 1013.3
20260503200005 66 235 7.8 13.0 0.00 0.00 0.00 46 1013.1
20260503195506 66 200 9.6 14.8 0.00 0.00 0.00 45 1013.4
20260503195005 66 186 10.4 18.2 0.00 0.00 0.00 45 1013.6
20260503194005 65 210 10.4 15.6 0.00 0.00 0.00 46 1013.7
20260503193506 65 198 11.3 17.4 0.00 0.00 0.00 45 1013.7
20260503193006 65 210 10.4 18.2 0.00 0.00 0.00 46 1013.8
20260503192505 65 218 11.3 17.4 0.00 0.00 0.00 47 1013.9
20260503192005 65 203 7.8 20.0 0.00 0.00 0.00 49 1013.9
20260503191006 64 201 10.4 17.4 0.00 0.00 0.00 48 1014.1
20260503190005 64 170 9.6 15.6 0.00 0.00 0.00 47 1014.4
20260503185505 64 208 7.8 17.4 0.00 0.00 0.00 49 1014.6
20260503185005 64 213 7.8 17.4 0.00 0.00 0.00 49 1014.9
20260503184005 64 204 8.7 14.8 0.00 0.00 0.00 48 1015.0
20260503183505 64 209 6.1 12.2 0.00 0.00 0.00 50 1015.0
20260503183006 63 223 8.7 15.6 0.00 0.00 0.00 48 1015.3
20260503182006 63 218 6.1 11.3 0.00 0.00 0.00 49 1015.5
20260503181505 63 204 10.4 18.2 0.00 0.00 0.00 48 1015.7
20260503181006 63 210 7.0 14.8 0.00 0.00 0.00 50 1015.7
20260503180005 62 217 9.6 14.8 0.00 0.00 0.00 51 1015.9
20260503175505 63 230 7.8 13.9 0.00 0.00 0.00 51 1015.9
20260503175005 63 190 7.0 14.8 0.00 0.00 0.00 50 1016.0
20260503174005 63 209 6.1 10.4 0.00 0.00 0.00 50 1016.3
20260503173505 62 209 7.8 13.9 0.00 0.00 0.00 50 1016.3
20260503173005 62 208 7.8 15.6 0.00 0.00 0.00 52 1016.4
20260503172505 62 215 8.7 17.4 0.00 0.00 0.00 50 1016.5
20260503172005 62 229 10.4 18.2 0.00 0.00 0.00 50 1016.6
20260503171505 61 213 7.8 14.8 0.00 0.00 0.00 50 1016.8
20260503171005 61 234 7.0 13.0 0.00 0.00 0.00 50 1016.7
20260503170506 62 233 9.6 15.6 0.00 0.00 0.00 52 1016.8
20260503151005 58 209 6.1 13.9 0.00 0.00 0.00 57 1017.9
20260503150505 57 190 7.8 12.2 0.00 0.00 0.00 58 1017.9
20260503131005 50 211 6.1 8.7 0.00 0.00 0.00 67 1018.2
20260503130505 49 204 5.2 8.7 0.00 0.00 0.00 69 1018.2
20260503090504 37 355 0.0 0.0 0.00 0.00 0.00 89 1017.5
20260503081505 38 355 0.0 0.0 0.00 0.00 0.00 89 1017.3
20260503081005 38 355 0.0 0.0 0.00 0.00 0.00 89 1017.3
20260503080505 38 355 0.0 0.0 0.00 0.00 0.00 89 1017.3
20260503072505 38 355 0.0 0.0 0.00 0.00 0.00 89 1017.2
20260503072005 38 355 0.0 0.0 0.00 0.00 0.00 89 1017.3
20260503071505 38 355 0.0 0.0 0.00 0.00 0.00 88 1017.3
20260503071005 38 355 0.0 0.0 0.00 0.00 0.00 88 1017.3
20260503070505 38 355 0.0 0.0 0.00 0.00 0.00 88 1017.3
20260503055004 39 355 0.0 0.0 0.00 0.00 0.00 86 1017.7
20260503054504 39 355 0.0 0.0 0.00 0.00 0.00 86 1017.7
20260503054005 39 355 0.0 0.0 0.00 0.00 0.00 85 1017.7
20260503053004 39 355 0.0 0.0 0.00 0.00 0.00 85 1017.6
20260503052505 39 355 0.0 0.0 0.00 0.00 0.00 85 1017.6
20260503052005 39 355 0.0 0.0 0.00 0.00 0.00 85 1017.7
20260503051505 39 355 0.0 0.0 0.00 0.00 0.00 84 1017.7
20260503050004 40 355 0.0 0.0 0.00 0.00 0.00 84 1017.7
20260503045005 40 355 0.0 0.0 0.00 0.00 0.00 84 1017.7
20260503044005 40 355 0.0 0.0 0.00 0.00 0.00 83 1017.6
20260503043505 40 355 0.0 0.0 0.00 0.00 0.00 83 1017.6
20260503042504 41 355 0.0 0.0 0.00 0.00 0.00 82 1017.5